Torna al catalogo

COSMOS 2251 DEB

AttivoLEO
NORAD 34823·DEBRIS·🇷🇺 Russia

Lanciato Jun 16, 1993 da Plesetsk Cosmodrome

Loading…

Prossimi Passaggi (prossime 24 ore)

TLE

AggiornatoSource: Space-Track

Epoca: Sep 14, 2026, 13:19 UTC

1 34823U 93036ABN 26257.55524813  .00001166  00000-0  23273-3 0  9990
2 34823  74.0394 299.6307 0154024 313.7603  45.0895 14.55959263923941

Traccia COSMOS 2251 DEB in tempo reale con AllMySat

Download on the App Store